Stations météo

réclame
Mon MeteoGroup
Malaga/Aeropuerto, Espagne (8482): Température de l'air & dewpoint: 14.09.2020 18:00:00 - 20.09.2020 18:00:00 (CEST)Malaga/Aeropuerto, Espagne (8482): Vitesse du vent: 14.09.2020 18:00:00 - 20.09.2020 18:00:00 (CEST)Malaga/Aeropuerto, Espagne (8482): Direction du vent: 14.09.2020 18:00:00 - 20.09.2020 18:00:00 (CEST)Malaga/Aeropuerto, Espagne (8482): reduced air pressure: 14.09.2020 18:00:00 - 20.09.2020 18:00:00 (CEST)Malaga/Aeropuerto, Espagne (8482): visibility: 14.09.2020 18:00:00 - 20.09.2020 18:00:00 (CEST)
Date & Time tt [°C] td [°C] ff [km/h] ff [knt] dd ppp [hPa] vv [km]
20.09.2020 18:00:00 30,6 13,3 18 10 NW 1015,7 -
20.09.2020 17:00:00 30,7 14,0 9 5 WNW 1015,7 30
20.09.2020 16:00:00 31,7 14,6 13 7 WNW 1016,3 -
20.09.2020 15:00:00 31,0 13,2 15 8 W 1017,0 30
20.09.2020 14:00:00 29,7 14,3 16 9 W 1017,7 40
20.09.2020 13:00:00 28,4 14,4 21 11 W 1018,3 -
20.09.2020 12:00:00 26,9 15,0 21 11 W 1018,5 -
20.09.2020 11:00:00 24,9 14,8 18 10 W 1018,6 40
20.09.2020 10:00:00 22,9 14,4 18 10 W 1018,6 -
20.09.2020 09:00:00 19,9 14,0 24 13 WNW 1018,4 30
20.09.2020 08:00:00 20,5 13,1 29 16 WNW 1018,3 20
20.09.2020 07:00:00 20,9 13,0 26 14 W 1018,2 -
20.09.2020 06:00:00 21,1 13,2 26 14 W 1018,2 -
20.09.2020 05:00:00 21,1 13,9 24 13 W 1018,3 20
20.09.2020 04:00:00 21,3 14,7 26 14 W 1018,5 -
20.09.2020 03:00:00 21,0 15,3 22 12 W 1018,7 -
20.09.2020 02:00:00 21,6 16,0 18 10 W 1018,8 20
20.09.2020 01:00:00 21,6 16,5 13 7 W 1018,9 -
20.09.2020 00:00:00 22,6 16,9 15 8 W 1018,9 -
19.09.2020 23:00:00 23,6 17,0 13 7 W 1018,8 25
19.09.2020 22:00:00 24,9 17,0 13 7 WNW 1018,1 -
19.09.2020 21:00:00 25,2 18,1 8 4 W 1017,4 -
19.09.2020 20:00:00 26,3 17,6 13 7 NNW 1017,0 30
19.09.2020 19:00:00 27,6 17,5 9 5 WNW 1016,7 -
19.09.2020 18:00:00 27,5 17,9 24 13 WNW 1016,4 -
19.09.2020 17:00:00 27,1 18,3 16 9 S 1016,4 25
19.09.2020 16:00:00 27,3 18,2 15 8 SSE 1016,9 -
19.09.2020 15:00:00 27,9 18,4 16 9 S 1017,3 30
19.09.2020 14:00:00 26,9 18,7 11 6 SE 1018,3 35
19.09.2020 13:00:00 26,3 18,1 11 6 SSE 1018,7 -
19.09.2020 12:00:00 25,3 17,7 8 4 SE 1018,8 -
19.09.2020 11:00:00 22,9 17,1 5 3 WNW 1018,8 35
19.09.2020 10:00:00 20,4 17,1 13 7 WNW 1018,6 -
19.09.2020 09:00:00 18,3 16,6 8 4 WNW 1018,3 40
19.09.2020 08:00:00 18,3 16,2 9 5 W 1017,9 25
19.09.2020 07:00:00 19,1 16,2 4 2 WNW 1017,6 -
19.09.2020 06:00:00 19,0 16,5 5 3 WNW 1017,3 -
19.09.2020 05:00:00 19,5 17,1 13 7 W 1017,2 15
19.09.2020 04:00:00 19,6 17,1 2 1 S 1017,3 -
19.09.2020 03:00:00 19,4 16,3 5 3 W 1017,3 -
19.09.2020 02:00:00 20,6 16,5 4 2 W 1017,3 15
19.09.2020 01:00:00 21,8 16,2 11 6 SW 1017,3 -
19.09.2020 00:00:00 22,2 17,3 15 8 S 1017,6 -
18.09.2020 23:00:00 22,4 16,9 13 7 S 1017,4 15
18.09.2020 22:00:00 23,0 17,1 8 4 SSE 1016,9 -
18.09.2020 21:00:00 22,3 20,6 9 5 SSE 1016,1 -
18.09.2020 20:00:00 23,5 20,9 8 4 SSE 1015,5 15
18.09.2020 19:00:00 24,1 21,5 13 7 SSE 1015,2 -
18.09.2020 18:00:00 23,2 21,3 11 6 SSE 1014,9 -
18.09.2020 17:00:00 23,7 20,5 16 9 SE 1014,9 7
18.09.2020 16:00:00 23,2 20,6 15 8 ENE 1014,8 -
18.09.2020 15:00:00 24,0 20,5 28 15 E 1015,0 15
18.09.2020 14:00:00 24,1 21,3 28 15 ESE 1015,1 8
18.09.2020 13:00:00 24,4 21,1 22 12 ESE 1015,2 -
18.09.2020 12:00:00 24,4 21,1 34 18 ESE 1015,2 -
18.09.2020 11:00:00 22,5 20,1 42 23 ENE 1013,0 15
18.09.2020 10:00:00 22,2 19,7 35 19 ESE 1013,5 -
18.09.2020 09:00:00 22,2 19,5 9 5 SE 1014,3 15
18.09.2020 08:00:00 21,8 19,4 18 10 SE 1013,4 20
18.09.2020 07:00:00 21,7 19,3 15 8 ESE 1012,8 -
18.09.2020 06:00:00 21,5 19,0 18 10 E 1012,8 -
18.09.2020 05:00:00 21,3 18,6 11 6 E 1013,7 15
18.09.2020 04:00:00 21,1 19,6 13 7 ESE 1014,9 -
18.09.2020 03:00:00 20,8 19,0 13 7 SSE 1015,7 -
18.09.2020 02:00:00 22,5 17,8 13 7 SSE 1016,5 15
18.09.2020 01:00:00 23,1 19,3 15 8 ESE 1015,8 -
18.09.2020 00:00:00 23,2 19,7 13 7 E 1016,2 -
17.09.2020 23:00:00 23,1 18,9 18 10 E 1015,9 15
17.09.2020 22:00:00 23,6 18,4 8 4 S 1015,5 -
17.09.2020 21:00:00 23,8 19,9 9 5 SE 1014,8 -
17.09.2020 20:00:00 23,9 21,3 16 9 SE 1014,5 8
17.09.2020 19:00:00 24,8 22,3 15 8 SE 1014,2 -
17.09.2020 18:00:00 26,1 22,5 13 7 SE 1013,4 -
17.09.2020 17:00:00 27,1 22,9 15 8 ESE 1013,2 15
17.09.2020 16:00:00 27,2 22,6 21 11 ESE 1013,4 -
17.09.2020 15:00:00 27,5 22,6 22 12 ESE 1013,8 15
17.09.2020 14:00:00 27,9 22,5 16 9 ESE 1014,5 18
17.09.2020 13:00:00 26,8 22,4 15 8 SE 1015,1 -
17.09.2020 12:00:00 25,9 22,6 18 10 SE 1015,5 -
17.09.2020 11:00:00 25,3 22,3 18 10 ESE 1015,6 12
17.09.2020 10:00:00 24,4 22,2 18 10 ESE 1015,5 -
17.09.2020 09:00:00 24,1 22,5 15 8 ESE 1015,4 8
17.09.2020 08:00:00 24,0 22,3 16 9 E 1015,1 10
17.09.2020 07:00:00 23,8 21,9 16 9 E 1015,1 -
17.09.2020 06:00:00 23,5 21,5 13 7 E 1015,3 -
17.09.2020 05:00:00 23,5 21,3 8 4 ESE 1015,4 10
17.09.2020 04:00:00 23,5 20,8 9 5 SE 1015,8 -
17.09.2020 03:00:00 23,7 21,0 13 7 S 1016,2 -
17.09.2020 02:00:00 23,6 21,0 15 8 SSE 1016,0 10
17.09.2020 01:00:00 23,9 21,4 15 8 SE 1016,2 -
17.09.2020 00:00:00 23,9 21,2 13 7 ESE 1016,3 -
16.09.2020 23:00:00 23,9 20,9 0 0 N 1017,7 10
16.09.2020 22:00:00 23,8 21,2 5 3 E 1017,6 -
16.09.2020 21:00:00 24,1 21,2 9 5 ESE 1016,8 -
16.09.2020 20:00:00 24,6 21,2 13 7 ESE 1016,6 10
16.09.2020 19:00:00 25,2 21,0 13 7 ESE 1016,4 -
16.09.2020 18:00:00 25,8 21,0 13 7 SE 1016,1 -
16.09.2020 17:00:00 26,6 20,9 16 9 SSE 1016,0 15
16.09.2020 16:00:00 26,8 20,4 11 6 SE 1016,3 -
16.09.2020 15:00:00 27,3 20,5 13 7 SE 1017,3 15
16.09.2020 14:00:00 27,2 20,7 16 9 SE 1018,4 15
16.09.2020 13:00:00 26,7 20,8 18 10 ESE 1018,9 -
16.09.2020 12:00:00 27,1 20,5 15 8 ESE 1019,1 -
16.09.2020 11:00:00 24,8 18,7 4 2 N 1019,1 15
16.09.2020 10:00:00 22,2 17,0 11 6 WNW 1019,2 -
16.09.2020 09:00:00 20,1 16,5 11 6 W 1019,0 15
16.09.2020 08:00:00 19,2 16,0 11 6 WNW 1018,8 10
16.09.2020 07:00:00 19,8 16,3 11 6 W 1019,0 -
16.09.2020 06:00:00 20,0 17,0 11 6 WNW 1019,0 -
16.09.2020 05:00:00 20,7 17,2 13 7 WNW 1019,5 20
16.09.2020 04:00:00 20,8 17,3 11 6 WNW 1019,7 -
16.09.2020 03:00:00 21,7 17,0 8 4 WNW 1020,4 -
16.09.2020 02:00:00 22,0 20,2 4 2 W 1020,5 20
16.09.2020 01:00:00 22,2 20,6 4 2 SSW 1020,6 -
16.09.2020 00:00:00 22,7 20,7 5 3 SE 1020,4 -
15.09.2020 23:00:00 23,4 20,8 8 4 SSE 1020,2 25
15.09.2020 22:00:00 23,8 20,8 8 4 SE 1019,9 -
15.09.2020 21:00:00 24,4 20,9 8 4 SE 1019,4 -
15.09.2020 20:00:00 25,8 20,9 11 6 ESE 1019,1 15
15.09.2020 19:00:00 27,1 21,2 13 7 ESE 1019,0 -
15.09.2020 18:00:00 27,8 20,8 13 7 SE 1019,3 -
15.09.2020 17:00:00 27,9 20,7 15 8 SE 1019,7 25
15.09.2020 16:00:00 28,2 21,1 15 8 SE 1020,2 -
15.09.2020 15:00:00 27,9 21,2 15 8 ESE 1021,0 30
15.09.2020 14:00:00 28,3 21,0 16 9 ESE 1021,7 25
15.09.2020 13:00:00 28,4 20,8 13 7 E 1022,1 -
15.09.2020 12:00:00 27,8 19,7 11 6 E 1022,4 -
15.09.2020 11:00:00 26,4 19,1 4 2 E 1022,0 20
15.09.2020 10:00:00 23,6 18,0 8 4 WNW 1021,6 -
15.09.2020 09:00:00 21,5 17,6 13 7 WNW 1021,3 14
15.09.2020 08:00:00 20,8 17,6 11 6 WNW 1020,9 14
15.09.2020 07:00:00 22,2 18,0 11 6 W 1020,6 -
15.09.2020 06:00:00 22,7 18,3 13 7 W 1020,7 -
15.09.2020 05:00:00 22,5 17,9 9 5 W 1020,9 20
15.09.2020 04:00:00 22,9 18,0 8 4 WNW 1021,1 -
15.09.2020 03:00:00 23,5 18,3 9 5 W 1021,5 -
15.09.2020 02:00:00 23,1 18,5 4 2 W 1021,7 20
15.09.2020 01:00:00 23,2 18,3 9 5 WNW 1021,6 -
15.09.2020 00:00:00 23,8 18,8 5 3 SSE 1021,6 -
14.09.2020 23:00:00 24,3 19,0 5 3 S 1021,5 20
14.09.2020 22:00:00 25,0 19,3 4 2 SSE 1021,3 -
14.09.2020 21:00:00 25,3 18,8 9 5 SSE 1020,2 -
14.09.2020 20:00:00 26,2 18,9 5 3 SSE 1019,6 25
14.09.2020 19:00:00 27,0 20,0 11 6 SE 1019,6 -
14.09.2020 18:00:00 27,6 20,0 16 9 SSE 1019,8 -

tt = Température de l'air
td = dewpoint
ff = Vitesse du vent
dd = Direction du vent
ppp = reduced air pressure
vv = visibility

stations d'obs. à proximité